RH
8 8 9 9 9 10 11 14 14 13 18 24 22 22 22 34 33 32 37 43 44 44 48 55 64 68 71 76 86 93 93 95 98 95 90 87 80 83 87 83 87 82 92 83
8 8 6 6 8 10 11 13 14 13 19 21 19 22 21 24 34 31 33 39 44 44 46 56 63 64 66 75 83 92 96 96 91 93 89 79 82 75 85 84 96 97 98 91
9 6 5 6 7 10 12 13 14 16 21 21 19 24 21 19 28 33 32 33 39 43 45 51 57 60 63 70 82 89 94 96 92 82 92 96 90 88 91 88 95 95 90 92
7 5 6 7 9 9 13 10 12 15 20 25 20 23 17 17 25 29 34 34 33 40 45 47 53 58 61 65 75 87 92 91 94 84 88 88 82 72 66 71 70 85 96 95
9 6 7 7 7 7 11 9 11 13 17 20 22 25 17 18 20 23 28 32 31 32 40 46 50 53 58 63 69 78 78 68 82 93 88 90 92 70 70 73 88 94 84 88
9 6 6 6 5 7 8 11 12 13 14 22 19 20 17 15 18 15 18 26 30 30 33 41 46 49 55 59 65 72 72 58 68 92 96 94 87 83 70 80 79 76 77 89
10 8 6 4 7 6 9 13 20 21 20 21 16 19 17 11 10 11 10 16 28 29 31 36 43 47 53 57 62 69 67 54 60 73 92 92 97 94 90 88 80 70 71 74
14 12 8 6 6 8 10 11 16 24 19 17 15 20 15 11 10 9 9 13 22 28 28 32 38 43 50 55 60 66 70 54 56 61 62 67 85 91 88 85 75 74 71 68
12 13 7 6 6 6 10 12 10 13 12 13 11 15 11 10 12 11 12 16 18 25 27 28 34 40 45 52 59 58 57 54 54 67 57 56 64 75 81 82 92 82 83 69
12 15 9 7 6 6 7 8 13 13 23 21 15 14 15 13 10 8 11 15 18 23 26 25 29 34 40 46 51 54 51 52 57 65 54 50 59 59 80 90 89 67 76 61
11 13 10 9 8 7 8 9 12 11 13 17 19 14 10 11 11 10 8 14 15 19 26 27 26 30 38 40 45 52 62 62 52 57 45 40 67 78 73 92 61 49 43 24
12 13 16 9 6 5 6 9 11 14 21 14 14 12 7 8 8 8 7 7 8 16 22 28 28 30 34 39 39 44 52 62 63 42 35 44 74 80 88 82 48 23 48 17
12 15 19 16 7 6 7 7 9 10 12 19 17 14 7 8 9 8 13 12 13 22 25 29 30 33 36 38 41 43 50 53 58 65 71 61 60 75 92 51 23 22 35 15
17 12 16 15 14 8 9 7 7 8 12 14 13 12 10 8 10 8 9 13 16 26 29 33 33 37 40 40 45 47 47 51 55 59 71 79 81 90 89 52 28 22 32 17
24 27 17 13 11 9 9 7 7 8 8 13 11 11 10 10 9 8 7 8 15 27 32 36 37 42 47 48 49 55 54 56 56 62 66 78 93 99 80 46 42 43 36 24
16 29 23 21 14 12 12 10 7 7 7 8 8 10 7 7 8 7 7 7 14 26 30 36 41 44 52 54 58 60 63 62 67 70 75 80 98 98 70 60 56 63 51 41
23 25 32 28 17 16 18 13 10 8 6 7 9 8 7 7 8 9 8 12 15 23 28 34 40 43 50 56 63 65 69 69 73 81 83 93 94 80 73 72 75 71 71 66
30 36 30 29 28 33 14 10 10 8 6 7 8 8 8 8 10 12 14 11 15 22 27 34 35 43 53 52 56 59 53 39 69 75 90 97 78 71 71 76 82 84 81 72
24 31 30 31 28 22 19 17 12 11 10 6 9 10 10 11 17 24 26 25 22 25 30 36 38 48 48 47 45 32 39 43 65 81 84 62 61 71 79 83 80 91 92 94
23 29 30 30 33 35 34 38 38 34 27 9 8 11 11 16 20 10 33 28 25 30 34 39 40 45 47 33 25 26 49 42 39 32 40 43 59 72 78 81 85 94 100 99
36 36 29 30 37 31 43 38 36 42 22 9 16 19 20 22 26 40 38 37 35 39 45 46 46 42 26 25 43 52 53 42 28 30 35 46 62 81 85 91 74 99 99 100
42 39 29 34 45 42 45 34 48 47 40 36 34 31 30 40 43 45 45 47 47 44 40 37 41 38 48 45 41 28 33 28 32 47 46 63 85 88 98 89 96 98 97 98
33 27 28 34 29 54 49 56 50 43 41 38 38 39 39 37 40 41 40 39 38 35 34 38 47 56 51 39 55 46 29 26 34 42 61 80 89 98 96 91 99 99 100 99
35 30 36 48 49 50 54 54 48 43 40 39 39 34 36 37 37 40 42 44 49 51 48 47 49 46 26 25 26 25 29 36 47 53 66 71 97 99 99 99 98 96 97 97
50 45 46 49 59 46 53 56 54 49 48 46 44 43 44 49 52 60 62 58 59 62 60 55 55 63 37 34 35 39 46 56 62 68 82 99 100 99 99 99 98 96 89 85
88 81 49 45 63 73 68 57 53 48 44 45 45 46 49 49 52 68 72 73 80 71 74 74 75 73 70 55 57 70 69 89 99 98 99 100 98 99 97 96 89 86 80 66
Wind_Speed
21 19 21 23 21 20 17 15 13 16 14 17 15 13 10 12 17 20 21 24 25 27 26 26 26 25 25 24 23 22 23 22 20 18 17 17 16 16 16 15 16 14 13 14
15 22 22 22 21 23 20 18 17 14 8 15 12 14 12 13 18 21 24 25 26 25 25 27 27 27 27 26 24 23 24 25 24 19 18 18 16 14 14 13 14 14 14 14
19 19 20 19 22 23 22 21 18 16 11 15 10 14 14 16 18 20 23 26 28 28 28 29 30 30 28 28 27 26 25 25 24 24 19 15 16 15 12 13 11 10 11 11
20 19 23 17 23 22 23 22 19 16 12 13 16 12 14 15 16 18 25 28 29 31 29 29 31 31 30 29 27 26 25 25 24 24 23 21 15 14 12 12 11 12 11 10
20 23 21 23 23 24 24 21 20 20 15 18 15 10 13 5 14 19 26 32 33 33 33 32 31 32 31 28 28 27 27 27 25 24 24 22 19 16 14 13 13 13 13 11
23 19 20 21 21 22 19 16 12 17 15 18 24 15 15 13 15 16 18 29 34 34 33 32 31 30 32 30 29 27 28 29 28 26 24 25 20 19 16 16 13 12 12 12
20 22 16 20 21 23 22 17 11 15 15 15 18 20 16 12 12 16 16 22 31 34 33 33 34 34 33 34 31 29 30 31 30 29 27 25 24 23 20 18 15 13 12 12
18 20 27 17 28 25 26 25 16 23 15 14 21 16 18 19 22 26 18 17 24 34 36 37 37 36 35 34 34 32 31 33 32 31 31 30 27 23 21 19 17 15 13 12
20 25 24 25 18 27 28 25 26 25 20 16 17 14 22 17 15 17 16 16 22 31 39 39 37 38 36 35 36 38 37 35 34 32 33 33 30 28 22 19 18 15 14 11
15 13 24 23 21 25 29 21 24 20 26 23 20 18 11 18 19 17 14 18 22 27 33 40 41 41 40 37 37 37 38 38 34 33 34 33 31 29 25 22 23 20 15 13
22 13 15 23 27 28 20 23 21 23 21 19 18 19 16 16 15 15 12 17 19 23 31 36 43 42 39 37 37 36 34 35 36 34 37 36 30 27 26 24 24 19 19 14
22 15 15 19 27 29 26 25 26 17 27 20 22 18 12 13 17 23 25 19 12 17 26 32 36 38 40 40 38 37 35 33 34 38 40 36 30 27 27 26 27 21 22 16
20 18 14 19 19 18 27 31 27 26 20 26 20 18 16 9 12 16 14 17 11 12 18 26 30 36 40 41 40 39 36 35 32 32 30 32 32 32 29 31 32 27 25 21
6 18 22 16 22 21 25 26 30 30 23 23 26 21 21 18 16 18 19 22 14 12 15 23 28 33 35 38 41 42 36 33 31 29 29 29 30 28 34 35 36 36 35 32
6 15 16 21 21 19 24 28 28 31 32 29 23 29 24 22 20 20 25 23 17 16 18 25 30 34 35 35 37 35 32 29 28 27 27 26 24 29 36 39 40 42 44 48
13 11 10 17 22 24 23 26 27 26 27 31 33 31 23 31 32 31 30 29 21 22 21 26 28 29 30 30 29 26 26 25 24 24 24 23 27 31 35 37 38 45 53 54
14 13 10 16 15 20 24 27 27 29 27 24 25 28 30 27 22 29 31 27 25 26 25 28 30 27 25 25 24 23 21 21 21 21 23 25 31 30 29 27 32 40 52 53
10 13 12 12 1 13 15 19 23 26 28 24 20 17 24 21 22 26 27 19 25 22 20 22 25 23 22 21 20 19 18 20 22 22 23 24 25 23 21 23 25 30 41 50
18 14 10 11 14 11 18 8 17 22 25 28 21 20 12 12 14 16 12 13 18 18 19 21 23 23 23 24 24 23 22 21 21 21 21 21 20 21 21 21 22 26 33 35
19 16 13 8 14 18 3 12 17 14 15 23 25 17 21 14 12 13 7 8 13 18 18 22 24 27 28 29 28 27 24 21 19 17 17 16 18 19 18 18 19 20 26 28
16 16 19 11 10 8 11 13 6 9 8 21 21 24 20 16 3 8 12 12 15 20 23 28 27 28 31 31 28 24 21 17 14 15 16 18 18 20 18 19 17 19 20 20
18 15 11 7 9 15 10 2 1 15 17 8 13 17 17 17 19 19 20 22 26 29 27 29 31 30 25 23 20 17 14 12 14 16 18 19 20 21 21 20 18 19 19 22
14 14 8 11 8 5 7 1 3 7 4 9 15 23 27 32 29 29 28 26 29 30 28 24 23 22 20 19 15 13 12 13 14 17 19 19 19 21 19 17 19 19 18 18
4 7 7 9 5 9 10 8 8 5 9 19 18 23 24 25 28 26 21 22 22 20 19 18 16 15 13 11 12 12 11 12 13 16 18 19 21 21 16 14 15 15 13 12
6 4 9 5 6 14 16 12 9 6 9 16 19 20 19 20 22 25 22 18 17 16 13 11 10 11 12 12 10 9 10 12 16 18 19 20 18 17 16 15 15 12 15 14
10 6 3 6 11 12 14 12 4 13 16 16 20 24 23 23 23 22 22 17 12 14 11 8 8 9 9 9 9 10 13 15 16 17 16 15 14 11 11 12 18 18 15 13
Wind_Direction
191 201 208 207 215 229 225 211 216 215 157 203 215 221 191 192 209 210 202 201 203 206 202 201 202 202 202 204 207 209 211 214 213 220 216 225 228 235 237 237 249 249 248 249
182 214 211 223 217 230 239 225 220 194 169 218 218 233 228 197 214 211 208 207 210 209 201 201 202 202 205 206 208 211 213 216 218 220 218 217 226 231 241 242 244 239 241 243
209 204 218 215 222 223 225 230 219 218 183 229 249 234 233 213 210 216 216 213 213 211 206 204 203 204 204 206 209 212 215 217 220 215 223 225 226 221 239 242 251 255 246 249
220 213 205 206 225 218 226 223 234 223 205 226 205 245 228 217 206 213 214 213 215 213 211 209 208 207 207 209 210 213 216 219 222 222 218 223 220 227 230 230 233 232 243 245
206 208 194 216 215 218 233 228 220 246 219 241 181 241 256 184 228 217 218 215 213 212 212 210 209 210 209 209 210 212 216 223 219 220 214 223 225 227 223 224 225 230 240 226
229 202 215 219 216 224 227 250 235 235 235 232 234 212 233 218 231 243 224 217 214 211 210 211 211 209 211 209 209 211 215 221 224 219 221 217 218 216 217 222 225 222 220 227
215 206 214 214 211 211 217 213 209 218 226 239 211 234 230 249 221 241 261 209 214 211 207 206 208 207 207 207 207 209 213 217 222 223 221 221 222 222 223 224 229 224 227 227
209 213 207 196 213 202 214 216 224 220 221 220 231 236 234 234 259 259 256 245 202 208 207 206 205 206 207 206 207 208 213 215 219 224 228 229 226 223 226 228 222 227 224 229
207 227 200 217 214 220 204 221 229 243 229 246 226 211 240 245 245 247 243 220 205 206 208 205 205 206 206 206 207 210 216 218 218 221 227 230 230 225 220 218 225 225 226 224
224 233 220 200 214 220 227 210 220 231 238 228 234 240 221 219 226 241 210 217 211 207 207 206 206 204 204 205 208 211 217 222 221 221 226 228 228 230 222 216 216 214 224 231
228 213 212 211 207 210 208 223 219 234 228 242 239 236 226 236 256 269 263 216 221 209 208 207 208 208 204 205 207 210 213 218 220 222 226 226 224 220 224 217 229 232 228 239
212 216 229 216 222 215 222 213 215 221 224 236 246 245 214 225 230 241 247 260 231 222 213 210 209 206 204 206 207 210 212 213 216 220 226 226 222 216 216 215 225 221 235 223
207 225 212 230 218 206 229 224 221 227 238 225 227 230 245 205 246 270 249 241 242 231 213 208 204 202 205 207 206 210 213 215 215 216 217 222 224 220 211 217 221 215 218 214
273 222 220 222 222 218 210 228 232 229 231 232 240 238 225 219 229 250 256 249 246 234 213 203 201 200 202 205 207 209 213 215 216 217 216 217 219 212 212 220 222 220 214 212
229 237 233 231 255 238 232 219 223 233 240 239 236 235 235 240 247 244 253 255 240 224 204 200 196 197 199 202 205 210 212 212 213 216 217 218 214 215 229 230 224 221 221 231
224 252 262 247 244 242 237 233 239 230 236 241 241 247 236 232 236 247 247 247 234 225 209 204 197 198 196 198 198 200 204 206 208 209 213 211 215 224 243 241 230 223 231 236
231 236 215 245 233 233 240 241 227 229 239 232 234 237 239 247 243 231 237 233 234 227 211 201 197 198 193 192 190 191 191 192 196 200 199 201 222 234 241 243 236 233 230 234
233 228 255 255 212 238 250 235 240 235 228 235 250 242 224 220 243 229 238 240 239 226 209 196 191 190 183 179 181 175 180 182 186 190 191 198 213 221 227 231 230 234 232 233
223 234 230 237 234 277 290 326 237 242 238 226 222 234 246 246 239 232 232 223 233 214 207 187 181 176 166 165 167 163 165 170 173 180 186 199 205 210 213 220 226 223 224 224
218 216 239 190 239 232 90 9 341 318 251 243 239 224 239 214 229 228 181 204 208 189 187 172 167 164 159 154 153 153 153 154 161 169 181 191 198 204 208 212 217 226 222 218
190 201 211 201 229 234 29 344 21 236 268 222 205 220 221 211 273 125 134 149 157 145 154 145 146 146 146 144 146 146 148 154 160 175 189 190 189 192 194 199 198 215 216 216
193 202 210 205 234 234 15 12 322 332 305 266 207 193 181 143 126 121 120 129 129 123 130 131 131 133 134 137 142 148 151 160 172 182 189 185 181 183 191 196 199 211 215 226
198 208 195 225 232 74 35 62 85 357 57 103 123 131 139 126 117 112 114 117 112 115 121 125 126 127 136 143 151 153 174 186 189 196 188 186 189 189 192 195 205 208 211 220
210 181 189 183 103 86 100 89 74 64 95 103 103 113 112 110 108 104 102 96 96 101 107 116 121 125 134 149 160 171 182 194 199 196 196 191 188 193 193 191 204 209 220 236
16 291 158 125 137 115 72 64 82 107 98 94 89 85 83 86 83 95 85 82 88 92 91 101 114 126 144 150 157 165 180 181 176 177 178 180 190 187 189 186 197 214 222 219
340 349 202 189 129 91 69 47 64 92 82 81 79 78 72 74 71 73 80 75 88 90 81 90 110 134 137 134 141 155 159 154 158 165 168 171 166 181 186 221 220 215 226 213